Time,TemperatureF,DewpointF,PressureIn,WindDirection,WindDirectionDegrees,WindSpeedMPH,WindSpeedGustMPH,Humidity,HourlyPrecipIn,Conditions,Clouds,dailyrainin,SoftwareType,DateUTC
2013-02-25 11:10:00,-1.5,-13.0,29.38,West,270,0.0,0.0,57,0.00,,,0.00,Weather View 32 v70,2013-02-25 20:10:00,
2013-02-25 11:15:00,-1.1,-13.0,29.37,West,270,0.0,0.0,56,0.00,,,0.00,Weather View 32 v70,2013-02-25 20:15:00,
2013-02-25 11:20:00,-0.9,-13.2,29.38,West,270,1.0,3.0,55,0.00,,,0.00,Weather View 32 v70,2013-02-25 20:20:00,
2013-02-25 11:25:00,-0.4,-12.7,29.38,West,270,0.0,3.0,55,0.00,,,0.00,Weather View 32 v70,2013-02-25 20:25:00,
2013-02-25 11:30:00,0.0,-12.3,29.38,West,270,2.0,3.0,55,0.00,,,0.00,Weather View 32 v70,2013-02-25 20:30:00,
2013-02-25 11:35:00,0.6,-11.8,29.38,West,270,1.0,3.0,55,0.00,,,0.00,Weather View 32 v70,2013-02-25 20:35:00,
2013-02-25 11:40:00,0.9,-11.8,29.38,West,270,2.0,3.0,54,0.00,,,0.00,Weather View 32 v70,2013-02-25 20:40:00,
2013-02-25 11:45:00,1.2,-11.6,29.38,West,270,0.0,3.0,54,0.00,,,0.00,Weather View 32 v70,2013-02-25 20:45:00,
2013-02-25 11:50:00,1.5,-11.3,29.37,West,270,0.0,3.0,54,0.00,,,0.00,Weather View 32 v70,2013-02-25 20:50:00,
2013-02-25 11:55:00,2.0,-10.8,29.37,West,270,0.0,3.0,54,0.00,,,0.00,Weather View 32 v70,2013-02-25 20:55:00,
2013-02-25 12:00:00,2.4,-10.4,29.38,West,270,0.0,3.0,54,0.00,,,0.00,Weather View 32 v70,2013-02-25 21:00:00,
2013-02-25 12:05:00,3.1,-10.2,29.37,West,270,0.0,3.0,53,0.00,,,0.00,Weather View 32 v70,2013-02-25 21:05:00,
2013-02-25 12:10:00,3.7,-9.6,29.37,West,270,0.0,3.0,53,0.00,,,0.00,Weather View 32 v70,2013-02-25 21:10:00,
2013-02-25 12:15:00,4.1,-9.2,29.37,West,270,1.0,3.0,53,0.00,,,0.00,Weather View 32 v70,2013-02-25 21:15:00,
2013-02-25 12:20:00,4.4,-8.9,29.37,West,270,0.0,3.0,53,0.00,,,0.00,Weather View 32 v70,2013-02-25 21:20:00,
2013-02-25 12:25:00,4.6,-8.8,29.38,West,270,0.0,3.0,53,0.00,,,0.00,Weather View 32 v70,2013-02-25 21:25:00,
2013-02-25 12:30:00,5.1,-8.7,29.37,West,270,0.0,3.0,52,0.00,,,0.00,Weather View 32 v70,2013-02-25 21:30:00,
2013-02-25 12:35:00,5.5,-8.3,29.38,West,270,0.0,3.0,52,0.00,,,0.00,Weather View 32 v70,2013-02-25 21:35:00,
2013-02-25 12:40:00,5.8,-8.0,29.37,West,270,0.0,3.0,52,0.00,,,0.00,Weather View 32 v70,2013-02-25 21:40:00,
2013-02-25 12:45:00,6.2,-8.1,29.37,West,270,0.0,3.0,51,0.00,,,0.00,Weather View 32 v70,2013-02-25 21:45:00,
2013-02-25 12:50:00,6.5,-7.4,29.37,West,270,0.0,3.0,52,0.00,,,0.00,Weather View 32 v70,2013-02-25 21:50:00,
2013-02-25 12:55:00,6.9,-7.4,29.37,West,270,1.0,3.0,51,0.00,,,0.00,Weather View 32 v70,2013-02-25 21:55:00,
2013-02-25 13:00:00,7.2,-7.5,29.37,WNW,292,1.0,3.0,50,0.00,,,0.00,Weather View 32 v70,2013-02-25 22:00:00,
2013-02-25 13:05:00,7.5,-7.2,29.37,WNW,292,1.0,3.0,50,0.00,,,0.00,Weather View 32 v70,2013-02-25 22:05:00,
2013-02-25 13:10:00,7.8,-7.4,29.37,WNW,292,2.0,3.0,49,0.00,,,0.00,Weather View 32 v70,2013-02-25 22:10:00,
2013-02-25 13:15:00,8.0,-7.2,29.37,WNW,292,0.0,3.0,49,0.00,,,0.00,Weather View 32 v70,2013-02-25 22:15:00,
2013-02-25 13:20:00,8.4,-6.8,29.37,WNW,292,0.0,3.0,49,0.00,,,0.00,Weather View 32 v70,2013-02-25 22:20:00,
2013-02-25 13:25:00,8.7,-6.6,29.37,WNW,292,1.0,3.0,49,0.00,,,0.00,Weather View 32 v70,2013-02-25 22:25:00,
2013-02-25 13:30:00,9.0,-7.1,29.37,WNW,292,2.0,3.0,47,0.00,,,0.00,Weather View 32 v70,2013-02-25 22:30:00,
2013-02-25 13:35:00,9.1,-7.0,29.37,WNW,286,2.0,4.0,47,0.00,,,0.00,Weather View 32 v70,2013-02-25 22:35:00,
2013-02-25 13:40:00,9.3,-6.9,29.36,WNW,285,0.0,4.0,47,0.00,,,0.00,Weather View 32 v70,2013-02-25 22:40:00,
2013-02-25 13:45:00,9.5,-6.7,29.37,WNW,285,2.0,4.0,47,0.00,,,0.00,Weather View 32 v70,2013-02-25 22:45:00,
2013-02-25 13:50:00,9.9,-6.3,29.37,WNW,284,1.0,5.0,47,0.00,,,0.00,Weather View 32 v70,2013-02-25 22:50:00,
2013-02-25 13:55:00,10.3,-5.9,29.37,WNW,284,1.0,5.0,47,0.00,,,0.00,Weather View 32 v70,2013-02-25 22:55:00,
2013-02-25 14:00:00,10.6,-5.7,29.36,WNW,284,1.0,5.0,47,0.00,,,0.00,Weather View 32 v70,2013-02-25 23:00:00,
2013-02-25 14:05:00,10.9,-5.4,29.36,WNW,284,0.0,5.0,47,0.00,,,0.00,Weather View 32 v70,2013-02-25 23:05:00,
2013-02-25 14:10:00,11.2,-5.1,29.36,WNW,284,0.0,5.0,47,0.00,,,0.00,Weather View 32 v70,2013-02-25 23:10:00,
2013-02-25 14:15:00,11.9,-4.9,29.36,WNW,284,0.0,5.0,46,0.00,,,0.00,Weather View 32 v70,2013-02-25 23:15:00,
2013-02-25 14:20:00,12.1,-4.7,29.36,WNW,284,0.0,5.0,46,0.00,,,0.00,Weather View 32 v70,2013-02-25 23:20:00,
2013-02-25 14:25:00,12.4,-4.4,29.37,WNW,284,0.0,5.0,46,0.00,,,0.00,Weather View 32 v70,2013-02-25 23:25:00,
2013-02-25 14:30:00,12.7,-4.2,29.36,WNW,284,0.0,5.0,46,0.00,,,0.00,Weather View 32 v70,2013-02-25 23:30:00,
2013-02-25 14:35:00,13.1,-3.3,29.36,WNW,284,1.0,5.0,47,0.00,,,0.00,Weather View 32 v70,2013-02-25 23:35:00,
2013-02-25 14:40:00,13.3,-3.6,29.36,WNW,284,0.0,5.0,46,0.00,,,0.00,Weather View 32 v70,2013-02-25 23:40:00,
2013-02-25 14:45:00,13.6,-2.9,29.36,WNW,284,0.0,5.0,47,0.00,,,0.00,Weather View 32 v70,2013-02-25 23:45:00,
2013-02-25 14:50:00,13.9,-2.2,29.36,WNW,284,0.0,4.0,48,0.00,,,0.00,Weather View 32 v70,2013-02-25 23:50:00,
2013-02-25 14:55:00,14.4,-2.2,29.36,WNW,284,0.0,3.0,47,0.00,,,0.00,Weather View 32 v70,2013-02-25 23:55:00,
2013-02-25 15:00:00,15.0,-1.6,29.36,WNW,284,0.0,3.0,47,0.00,,,0.00,Weather View 32 v70,2013-02-26 00:00:00,
2013-02-25 15:05:00,15.4,-1.2,29.36,WNW,284,1.0,3.0,47,0.00,,,0.00,Weather View 32 v70,2013-02-26 00:05:00,
2013-02-25 15:13:00,16.1,-1.0,29.35,WNW,284,0.0,3.0,46,0.00,,,0.00,Weather View 32 v70,2013-02-26 00:13:00,
2013-02-25 15:18:00,16.5,-0.7,29.36,WNW,284,0.0,3.0,46,0.00,,,0.00,Weather View 32 v70,2013-02-26 00:18:00,
2013-02-25 15:23:00,16.6,-0.6,29.36,WNW,284,1.0,3.0,46,0.00,,,0.00,Weather View 32 v70,2013-02-26 00:23:00,
2013-02-25 15:28:00,16.7,-1.0,29.36,WNW,284,0.0,3.0,45,0.00,,,0.00,Weather View 32 v70,2013-02-26 00:28:00,
2013-02-25 15:33:00,16.7,-0.5,29.36,WNW,284,0.0,2.0,46,0.00,,,0.00,Weather View 32 v70,2013-02-26 00:33:00,
2013-02-25 15:38:00,16.6,-0.6,29.36,WNW,284,0.0,2.0,46,0.00,,,0.00,Weather View 32 v70,2013-02-26 00:38:00,
2013-02-25 15:43:00,16.6,-0.6,29.35,WNW,284,0.0,2.0,46,0.00,,,0.00,Weather View 32 v70,2013-02-26 00:43:00,
2013-02-25 15:48:00,16.9,0.2,29.35,WNW,284,0.0,2.0,47,0.00,,,0.00,Weather View 32 v70,2013-02-26 00:48:00,
2013-02-25 15:53:00,17.4,0.6,29.35,WNW,284,0.0,2.0,47,0.00,,,0.00,Weather View 32 v70,2013-02-26 00:53:00,
2013-02-25 15:58:00,17.7,0.9,29.35,WNW,284,0.0,2.0,47,0.00,,,0.00,Weather View 32 v70,2013-02-26 00:58:00,
2013-02-25 16:00:00,17.7,0.9,29.35,WNW,284,0.0,2.0,47,0.00,,,0.00,Weather View 32 v70,2013-02-26 01:00:00,
2013-02-25 16:03:00,17.9,1.1,29.35,WNW,284,0.0,2.0,47,0.00,,,0.00,Weather View 32 v70,2013-02-26 01:03:00,
2013-02-25 16:08:00,18.0,1.2,29.35,WNW,284,0.0,2.0,47,0.00,,,0.00,Weather View 32 v70,2013-02-26 01:08:00,
2013-02-25 16:13:00,18.0,1.2,29.35,WNW,284,0.0,2.0,47,0.00,,,0.00,Weather View 32 v70,2013-02-26 01:13:00,
2013-02-25 16:18:00,17.9,1.5,29.35,WNW,284,0.0,1.0,48,0.00,,,0.00,Weather View 32 v70,2013-02-26 01:18:00,
2013-02-25 16:23:00,17.9,1.5,29.35,WNW,284,0.0,1.0,48,0.00,,,0.00,Weather View 32 v70,2013-02-26 01:23:00,
2013-02-25 16:28:00,17.8,1.4,29.35,WNW,284,0.0,1.0,48,0.00,,,0.00,Weather View 32 v70,2013-02-26 01:28:00,
2013-02-25 16:33:00,17.8,1.4,29.35,WNW,284,0.0,1.0,48,0.00,,,0.00,Weather View 32 v70,2013-02-26 01:33:00,
2013-02-25 16:38:00,17.9,1.1,29.35,WNW,284,0.0,1.0,47,0.00,,,0.00,Weather View 32 v70,2013-02-26 01:38:00,
2013-02-25 16:43:00,17.9,1.1,29.35,WNW,284,0.0,1.0,47,0.00,,,0.00,Weather View 32 v70,2013-02-26 01:43:00,
2013-02-25 16:48:00,18.0,1.2,29.34,WNW,284,0.0,1.0,47,0.00,,,0.00,Weather View 32 v70,2013-02-26 01:48:00,
2013-02-25 16:53:00,17.8,1.0,29.34,WNW,284,0.0,1.0,47,0.00,,,0.00,Weather View 32 v70,2013-02-26 01:53:00,
2013-02-25 16:58:00,17.4,0.6,29.35,WNW,284,0.0,1.0,47,0.00,,,0.00,Weather View 32 v70,2013-02-26 01:58:00,
2013-02-25 17:00:00,17.4,0.6,29.35,WNW,284,0.0,1.0,47,0.00,,,0.00,Weather View 32 v70,2013-02-26 02:00:00,
2013-02-25 17:03:00,16.9,0.6,29.34,WNW,284,0.0,1.0,48,0.00,,,0.00,Weather View 32 v70,2013-02-26 02:03:00,
2013-02-25 17:08:00,16.5,0.7,29.34,WNW,284,0.0,1.0,49,0.00,,,0.00,Weather View 32 v70,2013-02-26 02:08:00,
2013-02-25 17:13:00,16.1,0.3,29.35,WNW,284,0.0,1.0,49,0.00,,,0.00,Weather View 32 v70,2013-02-26 02:13:00,
2013-02-25 17:18:00,15.6,-0.2,29.35,WNW,284,0.0,1.0,49,0.00,,,0.00,Weather View 32 v70,2013-02-26 02:18:00,
2013-02-25 17:23:00,14.9,-0.4,29.35,WNW,284,0.0,1.0,50,0.00,,,0.00,Weather View 32 v70,2013-02-26 02:23:00,
2013-02-25 17:28:00,14.3,-0.5,29.35,WNW,284,0.0,1.0,51,0.00,,,0.00,Weather View 32 v70,2013-02-26 02:28:00,
2013-02-25 17:33:00,13.6,-0.8,29.35,WNW,284,0.0,1.0,52,0.00,,,0.00,Weather View 32 v70,2013-02-26 02:33:00,
2013-02-25 17:38:00,13.0,-1.3,29.35,WNW,284,0.0,1.0,52,0.00,,,0.00,Weather View 32 v70,2013-02-26 02:38:00,
2013-02-25 17:43:00,12.4,-1.5,29.35,WNW,284,0.0,1.0,53,0.00,,,0.00,Weather View 32 v70,2013-02-26 02:43:00,
2013-02-25 17:48:00,11.6,-2.2,29.35,WNW,284,0.0,1.0,53,0.00,,,0.00,Weather View 32 v70,2013-02-26 02:48:00,
2013-02-25 17:53:00,10.7,-2.7,29.35,WNW,284,0.0,1.0,54,0.00,,,0.00,Weather View 32 v70,2013-02-26 02:53:00,
2013-02-25 17:58:00,9.8,-3.1,29.35,WNW,284,0.0,1.0,55,0.00,,,0.00,Weather View 32 v70,2013-02-26 02:58:00,
2013-02-25 18:00:00,9.7,-2.8,29.35,WNW,284,0.0,0.0,56,0.00,,,0.00,Weather View 32 v70,2013-02-26 03:00:00,
2013-02-25 18:03:00,9.0,-3.5,29.35,WNW,284,0.0,0.0,56,0.00,,,0.00,Weather View 32 v70,2013-02-26 03:03:00,
2013-02-25 18:08:00,8.2,-4.3,29.36,WNW,284,0.0,0.0,56,0.00,,,0.00,Weather View 32 v70,2013-02-26 03:08:00,
2013-02-25 18:13:00,7.7,-4.4,29.36,WNW,284,0.0,0.0,57,0.00,,,0.00,Weather View 32 v70,2013-02-26 03:13:00,
2013-02-25 18:18:00,6.9,-5.5,29.36,WNW,284,0.0,0.0,56,0.00,,,0.00,Weather View 32 v70,2013-02-26 03:18:00,
2013-02-25 18:23:00,6.4,-5.2,29.36,WNW,284,0.0,0.0,58,0.00,,,0.00,Weather View 32 v70,2013-02-26 03:23:00,
2013-02-25 18:28:00,5.7,-5.5,29.36,WNW,284,0.0,0.0,59,0.00,,,0.00,Weather View 32 v70,2013-02-26 03:28:00,
2013-02-25 18:33:00,5.1,-5.7,29.36,WNW,284,0.0,0.0,60,0.00,,,0.00,Weather View 32 v70,2013-02-26 03:33:00,
2013-02-25 18:38:00,4.7,-6.1,29.36,WNW,284,0.0,0.0,60,0.00,,,0.00,Weather View 32 v70,2013-02-26 03:38:00,
2013-02-25 18:43:00,4.2,-6.9,29.36,WNW,284,0.0,0.0,59,0.00,,,0.00,Weather View 32 v70,2013-02-26 03:43:00,
2013-02-25 18:48:00,3.6,-7.2,29.36,WNW,284,0.0,0.0,60,0.00,,,0.00,Weather View 32 v70,2013-02-26 03:48:00,
2013-02-25 18:53:00,3.1,-7.6,29.36,WNW,284,0.0,0.0,60,0.00,,,0.00,Weather View 32 v70,2013-02-26 03:53:00,
2013-02-25 18:58:00,2.4,-8.6,29.37,WNW,284,0.0,0.0,59,0.00,,,0.00,Weather View 32 v70,2013-02-26 03:58:00,
2013-02-25 19:00:00,2.4,-8.6,29.37,WNW,284,0.0,0.0,59,0.00,,,0.00,Weather View 32 v70,2013-02-26 04:00:00,
2013-02-25 19:03:00,1.9,-9.1,29.37,WNW,284,0.0,0.0,59,0.00,,,0.00,Weather View 32 v70,2013-02-26 04:03:00,
2013-02-25 19:08:00,1.3,-9.7,29.37,WNW,284,0.0,0.0,59,0.00,,,0.00,Weather View 32 v70,2013-02-26 04:08:00,
2013-02-25 19:13:00,0.8,-9.8,29.37,WNW,284,0.0,0.0,60,0.00,,,0.00,Weather View 32 v70,2013-02-26 04:13:00,
2013-02-25 19:18:00,0.4,-10.2,29.37,WNW,284,0.0,0.0,60,0.00,,,0.00,Weather View 32 v70,2013-02-26 04:18:00,
2013-02-25 19:23:00,0.2,-10.4,29.37,WNW,284,0.0,0.0,60,0.00,,,0.00,Weather View 32 v70,2013-02-26 04:23:00,
2013-02-25 19:28:00,-0.2,-10.4,29.37,WNW,284,0.0,0.0,61,0.00,,,0.00,Weather View 32 v70,2013-02-26 04:28:00,
2013-02-25 19:33:00,-0.6,-11.1,29.37,WNW,284,0.0,0.0,60,0.00,,,0.00,Weather View 32 v70,2013-02-26 04:33:00,
2013-02-25 19:38:00,-0.9,-11.1,29.37,WNW,284,0.0,0.0,61,0.00,,,0.00,Weather View 32 v70,2013-02-26 04:38:00,
2013-02-25 19:43:00,-1.3,-11.5,29.38,WNW,284,0.0,0.0,61,0.00,,,0.00,Weather View 32 v70,2013-02-26 04:43:00,
2013-02-25 19:48:00,-1.6,-11.8,29.37,WNW,284,0.0,0.0,61,0.00,,,0.00,Weather View 32 v70,2013-02-26 04:48:00,
2013-02-25 19:54:00,-1.8,-12.0,29.38,WNW,284,0.0,0.0,61,0.00,,,0.00,Weather View 32 v70,2013-02-26 04:54:00,
2013-02-25 19:59:00,-2.3,-12.4,29.38,WNW,284,0.0,0.0,61,0.00,,,0.00,Weather View 32 v70,2013-02-26 04:59:00,
2013-02-25 20:00:00,-2.3,-12.4,29.38,WNW,284,0.0,0.0,61,0.00,,,0.00,Weather View 32 v70,2013-02-26 05:00:00,
2013-02-25 20:05:00,-2.9,-13.0,29.37,WNW,284,0.0,0.0,61,0.00,,,0.00,Weather View 32 v70,2013-02-26 05:05:00,
2013-02-25 20:10:00,-3.2,-13.6,29.38,WNW,284,0.0,0.0,60,0.00,,,0.00,Weather View 32 v70,2013-02-26 05:10:00,
2013-02-25 20:15:00,-3.5,-13.9,29.38,WNW,284,0.0,0.0,60,0.00,,,0.00,Weather View 32 v70,2013-02-26 05:15:00,
2013-02-25 20:20:00,-3.8,-13.9,29.38,WNW,284,0.0,0.0,61,0.00,,,0.00,Weather View 32 v70,2013-02-26 05:20:00,
2013-02-25 20:25:00,-4.2,-14.2,29.38,WNW,284,0.0,0.0,61,0.00,,,0.00,Weather View 32 v70,2013-02-26 05:25:00,
2013-02-25 20:30:00,-4.5,-14.5,29.38,WNW,284,0.0,0.0,61,0.00,,,0.00,Weather View 32 v70,2013-02-26 05:30:00,
2013-02-25 20:35:00,-4.7,-14.7,29.38,WNW,284,0.0,0.0,61,0.00,,,0.00,Weather View 32 v70,2013-02-26 05:35:00,
2013-02-25 20:40:00,-4.9,-14.9,29.39,WNW,284,0.0,0.0,61,0.00,,,0.00,Weather View 32 v70,2013-02-26 05:40:00,
2013-02-25 20:45:00,-5.1,-14.8,29.39,WNW,284,0.0,0.0,62,0.00,,,0.00,Weather View 32 v70,2013-02-26 05:45:00,
2013-02-25 20:50:00,-5.3,-15.0,29.39,WNW,284,0.0,0.0,62,0.00,,,0.00,Weather View 32 v70,2013-02-26 05:50:00,
2013-02-25 20:55:00,-5.5,-15.1,29.39,WNW,284,0.0,0.0,62,0.00,,,0.00,Weather View 32 v70,2013-02-26 05:55:00,
2013-02-25 21:00:00,-5.8,-15.7,29.39,WNW,284,0.0,0.0,61,0.00,,,0.00,Weather View 32 v70,2013-02-26 06:00:00,
2013-02-25 21:05:00,-6.0,-15.9,29.39,WNW,284,0.0,0.0,61,0.00,,,0.00,Weather View 32 v70,2013-02-26 06:05:00,
2013-02-25 21:10:00,-6.4,-16.0,29.39,WNW,284,0.0,0.0,62,0.00,,,0.00,Weather View 32 v70,2013-02-26 06:10:00,
2013-02-25 21:15:00,-6.3,-15.9,29.39,WNW,284,0.0,0.0,62,0.00,,,0.00,Weather View 32 v70,2013-02-26 06:15:00,
2013-02-25 21:20:00,-6.4,-15.7,29.39,WNW,284,0.0,0.0,63,0.00,,,0.00,Weather View 32 v70,2013-02-26 06:20:00,
2013-02-25 21:25:00,-6.7,-16.3,29.39,WNW,284,0.0,0.0,62,0.00,,,0.00,Weather View 32 v70,2013-02-26 06:25:00,
2013-02-25 21:30:00,-7.0,-16.6,29.39,WNW,284,0.0,0.0,62,0.00,,,0.00,Weather View 32 v70,2013-02-26 06:30:00,
2013-02-25 21:35:00,-7.2,-17.1,29.39,WNW,284,0.0,0.0,61,0.00,,,0.00,Weather View 32 v70,2013-02-26 06:35:00,
2013-02-25 21:40:00,-7.4,-17.3,29.39,WNW,284,0.0,0.0,61,0.00,,,0.00,Weather View 32 v70,2013-02-26 06:40:00,
2013-02-25 21:45:00,-7.7,-17.6,29.39,WNW,284,0.0,0.0,61,0.00,,,0.00,Weather View 32 v70,2013-02-26 06:45:00,
2013-02-25 21:50:00,-8.0,-17.8,29.39,WNW,284,0.0,0.0,61,0.00,,,0.00,Weather View 32 v70,2013-02-26 06:50:00,
2013-02-25 21:55:00,-8.3,-18.1,29.39,WNW,284,0.0,0.0,61,0.00,,,0.00,Weather View 32 v70,2013-02-26 06:55:00,
2013-02-25 22:00:00,-8.7,-18.5,29.39,WNW,284,0.0,0.0,61,0.00,,,0.00,Weather View 32 v70,2013-02-26 07:00:00,
2013-02-25 22:05:00,-8.9,-18.7,29.39,WNW,284,0.0,0.0,61,0.00,,,0.00,Weather View 32 v70,2013-02-26 07:05:00,
2013-02-25 22:10:00,-9.0,-18.8,29.39,WNW,284,0.0,0.0,61,0.00,,,0.00,Weather View 32 v70,2013-02-26 07:10:00,
2013-02-25 22:15:00,-9.2,-19.0,29.39,WNW,284,0.0,0.0,61,0.00,,,0.00,Weather View 32 v70,2013-02-26 07:15:00,
2013-02-25 22:20:00,-9.5,-19.6,29.39,WNW,284,0.0,0.0,60,0.00,,,0.00,Weather View 32 v70,2013-02-26 07:20:00,
2013-02-25 22:25:00,-9.5,-19.3,29.39,WNW,284,0.0,0.0,61,0.00,,,0.00,Weather View 32 v70,2013-02-26 07:25:00,
2013-02-25 22:30:00,-9.8,-19.9,29.39,WNW,284,0.0,0.0,60,0.00,,,0.00,Weather View 32 v70,2013-02-26 07:30:00,
2013-02-25 22:35:00,-9.9,-19.6,29.39,WNW,284,0.0,0.0,61,0.00,,,0.00,Weather View 32 v70,2013-02-26 07:35:00,
2013-02-25 22:40:00,-9.9,-19.6,29.39,WNW,284,0.0,0.0,61,0.00,,,0.00,Weather View 32 v70,2013-02-26 07:40:00,
2013-02-25 22:45:00,-9.9,-19.6,29.38,WNW,284,0.0,0.0,61,0.00,,,0.00,Weather View 32 v70,2013-02-26 07:45:00,
2013-02-25 22:50:00,-10.0,-20.1,29.39,WNW,284,0.0,0.0,60,0.00,,,0.00,Weather View 32 v70,2013-02-26 07:50:00,
2013-02-25 22:55:00,-10.2,-20.2,29.39,WNW,284,0.0,0.0,60,0.00,,,0.00,Weather View 32 v70,2013-02-26 07:55:00,
2013-02-25 23:00:00,-10.3,-20.3,29.39,WNW,284,0.0,0.0,60,0.00,,,0.00,Weather View 32 v70,2013-02-26 08:00:00,
2013-02-25 23:05:00,-10.5,-20.9,29.38,WNW,284,0.0,0.0,59,0.00,,,0.00,Weather View 32 v70,2013-02-26 08:05:00,
2013-02-25 23:10:00,-10.7,-21.0,29.39,WNW,284,0.0,0.0,59,0.00,,,0.00,Weather View 32 v70,2013-02-26 08:10:00,
2013-02-25 23:15:00,-10.9,-21.2,29.39,WNW,284,0.0,0.0,59,0.00,,,0.00,Weather View 32 v70,2013-02-26 08:15:00,
2013-02-25 23:20:00,-11.1,-21.4,29.39,WNW,284,0.0,0.0,59,0.00,,,0.00,Weather View 32 v70,2013-02-26 08:20:00,
2013-02-25 23:25:00,-11.1,-21.4,29.39,WNW,284,0.0,0.0,59,0.00,,,0.00,Weather View 32 v70,2013-02-26 08:25:00,
2013-02-25 23:30:00,-11.3,-21.6,29.39,WNW,284,0.0,0.0,59,0.00,,,0.00,Weather View 32 v70,2013-02-26 08:30:00,
2013-02-25 23:35:00,-11.5,-21.8,29.39,WNW,284,0.0,0.0,59,0.00,,,0.00,Weather View 32 v70,2013-02-26 08:35:00,
2013-02-25 23:40:00,-11.5,-21.8,29.39,WNW,284,0.0,0.0,59,0.00,,,0.00,Weather View 32 v70,2013-02-26 08:40:00,
2013-02-25 23:45:00,-11.6,-21.9,29.39,WNW,284,0.0,0.0,59,0.00,,,0.00,Weather View 32 v70,2013-02-26 08:45:00,
2013-02-25 23:50:00,-11.7,-22.0,29.39,WNW,284,0.0,0.0,59,0.00,,,0.00,Weather View 32 v70,2013-02-26 08:50:00,
2013-02-25 23:55:00,-11.6,-21.9,29.39,WNW,284,0.0,0.0,59,0.00,,,0.00,Weather View 32 v70,2013-02-26 08:55:00,